Weather in Romantsevskiy

Russia / Tula Oblast     53°50′02″N   38°19′25″E
temp.,
°C
wind,
m/s
gust,
m/s
humid.,
%
clouds,
%
prec.,
mm/h
press.,
hPa
HPBL,
m
24 june, thu
thu2400:00+21ene22821 0.0 102111
03:00+20ene22860 0.0 102111
06:00+22e22823 0.0 102158
09:00+26ese22685 0.0 1020394
12:00+29ese33565 0.0 10201189
15:00+31ese22505 0.0 10191883
18:00+30se23604 0.0 1018314
21:00+24sse11692 0.1 101911
25 june, fri
fri2500:00+22sse33800 0.0 101833
03:00+20s22850 0.0 101818
06:00+22ssw12810 0.1 101863
09:00+26sse23670 0.1 1017436
12:00+29sse34541 0.1 10171144
15:00+30ssw225093 0.1 10161769
18:00+29s23614 0.0 10141161
21:00+24ssw22690 0.0 101515
26 june, sat
sat2600:00+19n35910 0.3 101589
03:00+20ese22851 0.4 101411
06:00+21w12851 0.5 101559
09:00+26wsw22690 0.5 1015433
12:00+30sw115414 0.0 10141197
15:00+31wsw114839 0.0 10132058
18:00+28w015977 0.1 1013762
21:00+25sse226966 0.1 101215
27 june, sun
sun2700:00+24s117055 0.3 101312
03:00+21ssw1179100 0.8 101311
06:00+23sse117995 0.2 101436
09:00+27sse236993 0.2 1013403
12:00+30sse2356100 0.0 10131246
15:00+31se2250100 0.0 10131765
18:00+30se246135 0.0 1011293
21:00+25ese33755 0.0 101239
28 june, mon
mon2800:00+23ese367913 0.1 1011101
03:00+19nw71295100 6.0 1013331
06:00+20sw3394100 5.4 1013100
09:00+22ene61289100 8.3 1011349
12:00+27e7973100 0.0 1010766
15:00+30ese5963100 0.0 10081356
18:00+29se59665 0.0 1007486
21:00+25se23820 0.3 100626